SCP
0 0 0 0 0 0 0 0 0 0 0 0 0 0 0 0 0 0 0 0 0 0
0 0 0 0 0 0 0 0 0 0 0 0 0 0 0 0 0 0 0 0 0 0
0 0 0 0 0 0 0 0 0 0 0 0 0 0 0 0 0 0 0 0 0 0
0 0 0 0 0 0 0 0 0 0 0 0 0 0 0 0 0 0 0 0 0 0
0 0 0 0 0 0 0 0 0 0 0 0 0 0 0 0 0 0 0 0 0 0
0 0 0 0 0 0 0 0 0 0 0 0 0 0 0 0 0 0 0 0 0 0
0 0 0 0 0 0 0 0 0 0 0 0 0 0 0 0 0 0 0 0 0 0
0 0 0 0 0 0 0 0 0 0 0 0 0 0 0 0 0 0 0 0 0 0
0 0 0 0 0 0 0 0 0 0 0 0 0 0 0 0 0 0 0 0 0 0
0 0 0 0 0 0 0 0 0 0 0 0 0 0 0 0 0 0 0 0 0 0
0 0 0 0 0 0 0 0 -0 0 0 0 0 0 0 0 0 0 0 0 0 0
0 0 0 0 0 0 0 0 0 0 0 0 0 0 0 0 0 0 0 0 0 0
0 0 0 0 0 0 0 0 0 0 0 0 0 0 0 0 0 0 0 0 0 0
0 0 0 0 0 0 0 0 0 0 0 0 0 0 0 0 0 0 0 0 0 0
Wind_Speed_500mb
30 30 28 26 25 11 13 11 8 21 26 22 34 30 25 24 11 18 19 18 14 24
37 34 29 26 26 29 25 32 29 23 18 15 10 10 8 16 13 16 29 26 31 34
37 36 35 32 32 32 26 18 20 22 27 28 32 28 27 21 21 20 27 35 39 38
27 27 22 26 29 28 25 23 29 30 29 28 22 27 29 20 22 28 24 22 25 27
20 20 18 22 22 21 20 19 16 17 17 15 18 16 17 21 23 18 14 14 17 21
23 22 22 24 22 18 18 18 18 15 15 13 15 18 18 20 21 21 23 22 21 21
28 28 27 25 23 22 23 23 25 25 25 22 22 24 25 26 27 26 26 27 27 28
27 26 27 26 26 25 23 24 27 27 26 26 26 30 30 29 27 27 25 25 27 29
25 25 27 27 26 25 26 26 25 26 26 26 27 28 29 29 30 30 31 31 31 30
22 22 24 25 23 23 24 24 25 26 26 29 30 32 33 35 37 39 40 41 41 40
14 16 17 18 19 21 21 23 25 27 29 30 31 31 33 36 39 41 43 45 47 48
8 11 13 14 17 20 21 23 25 28 31 34 37 39 40 41 43 44 45 47 49 51
8 11 14 17 19 21 25 27 30 33 35 37 38 41 44 47 48 52 54 54 55 55
8 11 12 15 17 20 23 25 28 31 34 36 39 42 46 51 54 57 59 61 62 61
Wind_Direction_500mb
90 92 103 111 100 159 108 90 189 257 260 248 259 267 260 253 249 292 259 288 293 294
61 71 72 68 78 79 76 66 45 42 22 2 347 349 314 267 310 313 338 323 323 313
49 49 53 52 51 51 52 52 20 35 26 16 11 5 338 326 314 327 335 339 324 315
45 44 47 51 35 34 27 28 10 13 5 357 339 351 347 343 351 345 343 316 311 320
52 52 40 45 39 35 33 43 37 29 29 12 12 19 17 360 9 12 12 3 343 328
67 70 66 66 64 53 49 52 53 49 47 38 25 24 20 19 18 13 8 6 0 358
68 68 71 70 72 74 65 60 60 54 50 44 38 37 34 29 25 19 13 10 4 358
62 59 60 61 59 57 55 47 44 44 42 38 33 35 28 23 19 14 7 2 358 355
67 63 58 55 50 47 43 38 32 31 26 21 19 16 8 1 356 354 348 345 343 340
62 56 50 43 34 30 27 23 14 12 9 7 5 1 352 347 344 342 337 333 330 327
47 38 34 25 16 13 8 5 1 356 356 354 352 347 342 339 338 335 331 326 322 320
30 15 7 1 7 9 5 2 357 354 351 348 344 340 336 334 331 329 328 325 323 320
346 353 354 352 354 353 352 351 349 346 344 342 339 337 336 334 333 331 329 326 323 320
337 333 329 328 331 334 337 338 337 337 337 336 337 336 336 335 334 332 330 327 324 321
Wind_Speed_850mb
30 30 28 26 25 11 13 11 8 21 26 22 34 30 25 24 11 18 19 18 14 24
37 34 29 26 26 29 25 32 29 23 18 15 10 10 8 16 13 16 29 26 31 34
37 36 35 32 32 32 26 18 20 22 27 28 32 28 27 21 21 20 27 35 39 38
27 27 22 26 29 28 25 23 29 30 29 28 22 27 29 20 22 28 24 22 25 27
20 20 18 22 22 21 20 19 16 17 17 15 18 16 17 21 23 18 14 14 17 21
23 22 22 24 22 18 18 18 18 15 15 13 15 18 18 20 21 21 23 22 21 21
28 28 27 25 23 22 23 23 25 25 25 22 22 24 25 26 27 26 26 27 27 28
27 26 27 26 26 25 23 24 27 27 26 26 26 30 30 29 27 27 25 25 27 29
25 25 27 27 26 25 26 26 25 26 26 26 27 28 29 29 30 30 31 31 31 30
22 22 24 25 23 23 24 24 25 26 26 29 30 32 33 35 37 39 40 41 41 40
14 16 17 18 19 21 21 23 25 27 29 30 31 31 33 36 39 41 43 45 47 48
8 11 13 14 17 20 21 23 25 28 31 34 37 39 40 41 43 44 45 47 49 51
8 11 14 17 19 21 25 27 30 33 35 37 38 41 44 47 48 52 54 54 55 55
8 11 12 15 17 20 23 25 28 31 34 36 39 42 46 51 54 57 59 61 62 61
Wind_Direction_850mb
90 92 103 111 100 159 108 90 189 257 260 248 259 267 260 253 249 292 259 288 293 294
61 71 72 68 78 79 76 66 45 42 22 2 347 349 314 267 310 313 338 323 323 313
49 49 53 52 51 51 52 52 20 35 26 16 11 5 338 326 314 327 335 339 324 315
45 44 47 51 35 34 27 28 10 13 5 357 339 351 347 343 351 345 343 316 311 320
52 52 40 45 39 35 33 43 37 29 29 12 12 19 17 360 9 12 12 3 343 328
67 70 66 66 64 53 49 52 53 49 47 38 25 24 20 19 18 13 8 6 0 358
68 68 71 70 72 74 65 60 60 54 50 44 38 37 34 29 25 19 13 10 4 358
62 59 60 61 59 57 55 47 44 44 42 38 33 35 28 23 19 14 7 2 358 355
67 63 58 55 50 47 43 38 32 31 26 21 19 16 8 1 356 354 348 345 343 340
62 56 50 43 34 30 27 23 14 12 9 7 5 1 352 347 344 342 337 333 330 327
47 38 34 25 16 13 8 5 1 356 356 354 352 347 342 339 338 335 331 326 322 320
30 15 7 1 7 9 5 2 357 354 351 348 344 340 336 334 331 329 328 325 323 320
346 353 354 352 354 353 352 351 349 346 344 342 339 337 336 334 333 331 329 326 323 320
337 333 329 328 331 334 337 338 337 337 337 336 337 336 336 335 334 332 330 327 324 321